Rock Hill, SC

12:08 PM EDT on July 24, 2017 (GMT -0400)
Rock Hill-York County-Bryant

Weather History for KUZA - February, 2013

Change the Weather History Date:

Wednesday, February 27, 2013

  Actual Average Record
Temperature  
Mean Temperature 46 °F -  
Max Temperature 55 °F 58 °F 80 °F (2011)
Min Temperature 37 °F 34 °F 10 °F (1963)
Degree Days  
Heating Degree Days 19    
Moisture  
Dew Point 37 °F    
Average Humidity 74    
Maximum Humidity 100    
Minimum Humidity 49    
Precipitation  
Precipitation 0.00 in - - ()
Sea Level Pressure  
Sea Level Pressure 29.75 in    
Wind  
Wind Speed 9 mph (SW)    
Max Wind Speed 15 mph    
Max Gust Speed 18 mph    
Visibility 10 miles    
Events      
Averages and records for this station are not official NWS values.
T = Trace of Precipitation, MM = Missing Value Source: NWS Daily Summary

Daily Weather History Graph

Daily Weather History Graph

Search for Another Location

Airport or City:

Trip Planner

Search our weather history database for the weather conditions in past years. The results will help you decide how hot, cold, wet, or windy it might be!

Date:

Astronomy

Feb. 27, 2013 Rise Set
Actual Time 6:55 AM EST 6:18 PM EST
Civil Twilight 6:30 AM EST 6:43 PM EST
Nautical Twilight 6:01 AM EST 7:13 PM EST
Astronomical Twilight 5:31 AM EST 7:42 PM EST
Moon 8:30 PM EST (2/27) 7:36 AM EST (2/27)
Length of Visible Light 12h 13m
Length of Day
11h 22m
Waning Gibbous, 96% of the Moon is Illuminated
Feb 27
Waning Gibbous
Mar 4
Last Quarter
Mar 11
New
Mar 19
First Quarter
Mar 27
Full

Hourly Weather History & Observations

Time (EST) Temp. Windchill Dew Point Humidity Pressure Visibility Wind Dir Wind Speed Gust Speed Precip Events Conditions
12:16 AM 41.0 °F 36.4 °F 41.0 °F 100% 29.69 in 4.0 mi SW 6.9 mph - N/A   Overcast
12:40 AM 41.0 °F 35.2 °F 41.0 °F 100% 29.68 in 9.0 mi SW 9.2 mph - N/A   Overcast
12:54 AM 39.9 °F 33.9 °F 39.9 °F 100% 29.69 in 8.0 mi SW 9.2 mph - N/A   Mostly Cloudy
1:06 AM 39.9 °F 33.9 °F 39.9 °F 100% 29.68 in 8.0 mi SW 9.2 mph - N/A   Scattered Clouds
1:54 AM 39.9 °F 33.4 °F 39.0 °F 97% 29.69 in 10.0 mi WSW 10.4 mph - N/A   Clear
2:54 AM 41.0 °F 34.3 °F 37.9 °F 89% 29.70 in 10.0 mi WSW 11.5 mph - N/A   Clear
3:54 AM 39.9 °F 32.9 °F 37.0 °F 89% 29.70 in 10.0 mi WSW 11.5 mph - N/A   Clear
4:54 AM 39.0 °F 33.4 °F 36.0 °F 89% 29.73 in 10.0 mi WSW 8.1 mph - N/A   Clear
5:54 AM 39.0 °F 33.4 °F 36.0 °F 89% 29.74 in 10.0 mi WSW 8.1 mph - N/A   Clear
6:54 AM 37.9 °F 32.1 °F 35.1 °F 89% 29.76 in 10.0 mi WSW 8.1 mph - N/A   Clear
7:54 AM 39.9 °F 33.4 °F 35.1 °F 83% 29.79 in 10.0 mi WSW 10.4 mph - N/A   Clear
8:54 AM 43.0 °F 36.8 °F 36.0 °F 76% 29.83 in 10.0 mi WSW 11.5 mph - N/A   Clear
10:54 AM 50.0 °F - 37.0 °F 61% 29.82 in 10.0 mi SW 8.1 mph - N/A   Clear
11:54 AM 51.1 °F - 36.0 °F 56% 29.82 in 10.0 mi WSW 9.2 mph - N/A   Partly Cloudy
12:54 PM 52.0 °F - 36.0 °F 54% 29.81 in 10.0 mi WSW 10.4 mph 16.1 mph N/A   Clear
1:54 PM 54.0 °F - 37.0 °F 53% 29.79 in 10.0 mi SW 15.0 mph - N/A   Scattered Clouds
2:54 PM 55.9 °F - 37.9 °F 51% 29.77 in 10.0 mi SSW 15.0 mph 18.4 mph N/A   Partly Cloudy
3:54 PM 55.9 °F - 37.0 °F 49% 29.77 in 10.0 mi SW 10.4 mph 18.4 mph N/A   Clear
4:54 PM 55.9 °F - 37.0 °F 49% 29.75 in 10.0 mi WSW 10.4 mph - N/A   Clear
5:54 PM 54.0 °F - 37.0 °F 53% 29.76 in 10.0 mi SW 11.5 mph - N/A   Clear
6:54 PM 48.0 °F - 36.0 °F 63% 29.78 in 10.0 mi WSW 4.6 mph - N/A   Clear
7:54 PM 45.0 °F 41.2 °F 36.0 °F 71% 29.77 in 10.0 mi SW 6.9 mph - N/A   Clear
9:54 PM 48.9 °F - 33.1 °F 54% 29.77 in 10.0 mi WSW 10.4 mph - N/A   Clear
10:54 PM 46.9 °F - 33.1 °F 59% 29.76 in 10.0 mi WSW 6.9 mph - N/A   Clear
11:54 PM 42.1 °F 37.1 °F 33.1 °F 70% 29.75 in 10.0 mi SW 8.1 mph - N/A   Clear